Location: ??????
(41.3747°N, 22.5491°E)
Time: 05:00:58
(UTC+00:00)

Meteor 1-10 Rocket - Pass Details

Date: 01 December 2020
Orbit: 836 x 910 km, 81.3° (Epoch: 20 January)

Event Time Altitude Azimuth Distance (km) Brightness Sun altitude
Rises 16:33:19 0° 174° (S) 3,431 7.5 -16.9°
Reaches altitude 10° 16:35:48 10° 170° (S) 2,488 6.7 -17.3°
Maximum altitude 16:41:16 54° 94° (E) 1,026 4.3 -18.3°
Enters shadow 16:45:53 14° 21° (NNE) 2,171 6.0 -19.2°
